Powrót do katalogu

IRIDIUM 33 DEB

AktywnyPO
NORAD 39781·DEBRIS·🇺🇸 United States

Wystrzelony Sep 14, 1997 z Baikonur Cosmodrome

Loading…

Następne Przeloty (najbliższe 24 godziny)

TLE

ŚwieżeSource: Space-Track

Epoka: Sep 14, 2026, 10:56 UTC

1 39781U 97051AAN 26257.45562649  .00003108  00000-0  11157-2 0  9992
2 39781  86.3785 143.9610 0167568 108.5859  13.4329 14.26029002120304

Śledź IRIDIUM 33 DEB w czasie rzeczywistym z AllMySat

Download on the App Store